[[{"header":{"parameterUnit":"m.s-1","parameterCategory":1,"la1":30.2992,"la2":30.254,"lo1":-89.0895,"lo2":-89.0443,"dy":0.0025,"dx":0.0025,"nx":19,"ny":19,"refTime":"2026-05-06T03:00:00:Z","depth":0,"parameterNumber":2,"parameterNumberName":"U-component_of_WINDS"},"data":[0,0,0,-2.7705,-2.7706,-2.773,-2.773,-2.7773,-2.7774,0,0,0,0,0,0,0,0,0,0,0,-2.7706,-2.7707,-2.7705,-2.7706,-2.773,-2.773,-2.7773,-2.7774,0,0,0,0,0,0,0,0,0,0,0,-2.7706,-2.7706,-2.7707,-2.7706,-2.773,-2.773,-2.7773,-2.775,0,0,0,0,0,0,0,0,0,0,-2.7725,-2.7733,-2.7706,-2.7707,-2.7706,-2.773,-2.773,-2.7749,-2.7752,-2.7768,0,-2.7785,0,-2.778,-2.7778,-2.7778,0,0,0,-2.77,-2.7731,-2.7731,-2.7707,-2.7707,-2.773,-2.7717,-2.775,-2.7754,-2.7772,-2.7785,-2.7786,-2.7781,-2.7778,-2.7778,-2.7892,-2.7892,0,0,-2.7699,-2.7714,-2.7729,-2.7733,-2.773,-2.7717,-2.7718,-2.7752,-2.7768,-2.7785,-2.7787,-2.7782,-2.7778,-2.7779,-2.7891,-2.7892,0,0,0,-2.7699,-2.7714,-2.7712,-2.7732,-2.7735,-2.7717,-2.7719,-2.7766,-2.7764,-2.7788,-2.7782,-2.7779,-2.7779,-2.789,-2.7891,-2.7944,0,0,0,-2.7698,-2.7714,-2.7712,-2.7722,-2.7735,-2.7751,-2.7733,-2.7762,-2.7765,-2.7782,-2.7779,-2.778,-2.7889,-2.7891,-2.7941,-2.7966,0,0,0,-2.7702,-2.7714,-2.772,-2.7722,-2.7733,-2.775,-2.775,-2.7762,-2.7762,-2.7778,-2.778,-2.7888,-2.789,-2.7938,-2.7961,-2.7998,0,0,0,-2.771,-2.7769,-2.7722,-2.7785,-2.7733,-2.7784,-2.7749,-2.7786,-2.7806,-2.7779,-2.7889,-2.7891,-2.7937,-2.7958,-2.7995,-2.803,-2.8048,0,0,-2.7792,-2.7779,-2.7815,-2.7774,-2.7836,-2.7779,-2.785,-2.7853,-2.7841,-2.7875,-2.7878,-2.7942,-2.7961,-2.7998,-2.8143,-2.8157,0,0,0,-2.7846,-2.7871,-2.7885,-2.7904,-2.7909,-2.7914,-2.7906,-2.7907,-2.7936,-2.7862,-2.7967,-2.7978,-2.7999,-2.8015,-2.8026,-2.8042,-2.79,-2.79,-2.79,-2.7982,-2.7963,-2.8021,-2.8005,-2.8025,-2.8016,-2.803,-2.803,-2.8005,-2.8031,-2.8039,-2.813,-2.8149,-2.8158,-2.8175,-2.806,-2.806,-2.806,-2.806,-2.8098,-2.813,-2.8097,-2.814,-2.812,-2.8157,-2.8151,-2.8132,-2.8163,-2.8122,-2.8139,-2.8093,-2.8173,-2.8187,-2.8064,-2.8063,-2.8063,-2.8063,-2.8062,-2.8182,-2.8194,-2.8195,-2.8222,-2.8245,-2.8228,-2.8258,-2.824,-2.8223,-2.824,-2.8246,-2.8245,-2.8239,-2.8245,-2.8246,-2.8246,-2.8246,-2.8246,-2.8247,-2.8267,-2.8267,-2.8295,-2.8306,-2.8316,-2.8327,-2.832,-2.8329,-2.8334,-2.8318,-2.8318,-2.829,-2.8186,-2.8158,-2.8251,-2.825,-2.825,-2.8249,-2.8249,-2.8385,-2.8356,-2.8398,-2.8409,-2.8419,-2.8442,-2.842,-2.8441,-2.8446,-2.8461,-2.8431,-2.8358,-2.8343,-2.8333,-2.831,-2.8436,-2.8436,-2.8436,-2.8436,-2.8453,-2.8445,-2.8484,-2.8501,-2.8516,-2.8501,-2.8549,-2.8545,-2.8535,-2.8537,-2.8517,-2.8486,-2.8478,-2.8467,-2.8455,-2.8432,-2.8587,-2.8587,-2.8587,-2.8523,-2.8516,-2.8559,-2.855,-2.8558,-2.8565,-2.8609,-2.863,-2.8614,-2.8593,-2.8538,-2.8531,-2.8481,-2.8466,-2.844,-2.8422,-2.838,0,0]},{"header":{"parameterUnit":"m.s-1","parameterCategory":1,"la1":30.2992,"la2":30.254,"lo1":-89.0895,"lo2":-89.0443,"dy":0.0025,"dx":0.0025,"nx":19,"ny":19,"refTime":"2026-05-06T03:00:00:Z","depth":0,"parameterNumber":3,"parameterNumberName":"V-component_of_WINDS"},"data":[0,0,0,4.7561,4.7561,4.7585,4.7585,4.7597,4.7597,0,0,0,0,0,0,0,0,0,0,0,4.7544,4.7544,4.7561,4.7561,4.7585,4.7585,4.7597,4.7597,0,0,0,0,0,0,0,0,0,0,0,4.7544,4.7544,4.7544,4.7561,4.7585,4.7585,4.7597,4.7585,0,0,0,0,0,0,0,0,0,0,4.7566,4.7541,4.7544,4.7544,4.7562,4.7585,4.7585,4.7585,4.7586,4.7579,0,4.7572,0,4.7585,4.7597,4.7597,0,0,0,4.7568,4.754,4.7555,4.7544,4.7562,4.7585,4.7576,4.7586,4.7587,4.758,4.7572,4.7573,4.7585,4.7597,4.7597,4.7541,4.7541,0,0,4.7567,4.7543,4.7555,4.7556,4.7553,4.7575,4.7577,4.7587,4.7575,4.7572,4.7573,4.7585,4.7597,4.7597,4.7542,4.7541,0,0,0,4.7558,4.7541,4.7557,4.7555,4.756,4.7576,4.7577,4.7575,4.7582,4.7574,4.7585,4.7597,4.7597,4.7543,4.7542,4.7493,0,0,0,4.7558,4.7537,4.7556,4.7542,4.756,4.7568,4.7565,4.7581,4.7583,4.7585,4.7597,4.7597,4.7543,4.7542,4.7496,4.7473,0,0,0,4.7546,4.7535,4.7536,4.754,4.755,4.7568,4.7577,4.7582,4.759,4.7597,4.7597,4.7544,4.7542,4.7498,4.7477,4.7454,0,0,0,4.7526,4.7488,4.7535,4.7498,4.7549,4.7539,4.7577,4.7569,4.7569,4.7597,4.7543,4.7542,4.7499,4.748,4.7457,4.7432,4.7418,0,0,4.7465,4.748,4.7461,4.7503,4.7478,4.7537,4.7505,4.7525,4.7546,4.7542,4.7541,4.7495,4.7478,4.7455,4.7352,4.7341,0,0,0,4.7434,4.742,4.7419,4.7419,4.7437,4.7451,4.748,4.7488,4.7486,4.754,4.748,4.7471,4.7458,4.7447,4.7438,4.743,4.7535,4.7536,4.7536,4.7313,4.7346,4.7317,4.7353,4.7353,4.7386,4.739,4.7407,4.7435,4.7421,4.742,4.7354,4.734,4.7334,4.7325,4.7408,4.7408,4.7408,4.7408,4.7229,4.7216,4.7261,4.7249,4.7284,4.7273,4.7304,4.7326,4.7322,4.7356,4.7347,4.7382,4.7321,4.7315,4.7405,4.7405,4.7406,4.7406,4.7406,4.7155,4.7154,4.7168,4.7176,4.7178,4.7215,4.7211,4.7241,4.7269,4.726,4.7264,4.7265,4.7271,4.726,4.726,4.7259,4.7259,4.7259,4.7259,4.7073,4.709,4.7083,4.7103,4.711,4.7122,4.7158,4.7165,4.718,4.7203,4.7203,4.7235,4.7309,4.7328,4.7256,4.7256,4.7257,4.7257,4.7257,4.6977,4.7005,4.6995,4.7003,4.703,4.7031,4.7072,4.7085,4.7095,4.7092,4.7128,4.7177,4.7193,4.7201,4.7217,4.712,4.712,4.712,4.712,4.6916,4.6929,4.6928,4.6938,4.6952,4.6989,4.6978,4.7006,4.7039,4.7047,4.7066,4.7089,4.7095,4.7108,4.7118,4.7133,4.7017,4.7017,4.7017,4.686,4.6877,4.6861,4.6897,4.6922,4.6942,4.6933,4.6943,4.6986,4.7014,4.7056,4.706,4.7098,4.7108,4.7136,4.715,4.7179,0,0]}]]